Regional Weather Roundup
Issued by NWS

Home | Current Version | Previous Version | Graphics & Text | Print | Product List | Glossary On
Versions: 1 2 3 4 5 6 7 8 9 10 11 12 13 14 15 16 17 18 19 20 21 22 23 24 25 26 27 28 29 30 31 32 33 34 35 36 37 38 39 40 41 42 43 44 45 46 47 48 49 50
371
ASUS43 KLMK 211510
RWRKY
KENTUCKY REGIONAL WEATHER ROUNDUP
NATIONAL WEATHER SERVICE LOUISVILLE KY
1000 AM EST WED FEB 21 2018

NOTE "FAIR" INDICATES FEW OR NO CLOUDS BELOW 12,000 FEET
WITH NO SIGNIFICANT WEATHER AND/OR OBSTRUCTIONS TO VISIBILITY.

KYZ001>023-026-027-061>063-070>075-211600-
WESTERN AND SOUTH CENTRAL KENTUCKY

CITY           SKY/WX    TMP DP  RH WIND       PRES   REMARKS
PADUCAH        CLOUDY    38  35  89 N13       30.45R WCI  30
HENDERSON      LGT RAIN  38  36  92 N8        30.44F WCI  32
OWENSBORO      RAIN      42  40  92 NW14      30.43R FOG
HOPKINSVILLE   LGT RAIN  47  46  99 N8        30.38R
BOWLING GREEN  CLOUDY    60  57  89 N7        30.34R
GLASGOW        CLOUDY    59  56  89 N5        30.34R
$$

KYZ024-025-028>034-038-045-046-053-211600-
NORTH CENTRAL KENTUCKY

CITY           SKY/WX    TMP DP  RH WIND       PRES   REMARKS
LOUISVILLE/SDF LGT RAIN  59  57  93 N7        30.34R
LOUISVILLE/LOU LGT RAIN  59  58  96 NW5       30.34R
FORT KNOX      LGT RAIN  57  57 100 VRB5      30.35R
$$

KYZ035>037-039>044-047>052-055>060-089>105-211600-
NORTHEAST KENTUCKY

CITY           SKY/WX    TMP DP  RH WIND       PRES   REMARKS
LEXINGTON      LGT RAIN  58  55  90 N12       30.32R
COVINGTON      LGT RAIN  57  57 100 NW3       30.32R FOG
FRANKFORT      LGT RAIN  59  54  83 N6        30.31R
$$

KYZ054-064>069-076>088-106>120-211600-
SOUTHEAST KENTUCKY

CITY           SKY/WX    TMP DP  RH WIND       PRES   REMARKS
JACKSON        CLOUDY    70  60  70 VRB5      30.31R
LONDON         CLOUDY    72  59  63 SW15G32   30.32R
SOMERSET       CLOUDY    70  61  73 MISG      30.33R
MIDDLESBORO    CLOUDY    68  63  82 SW9G21    30.37R
MONTICELLO     NOT AVBL
$$





USA.gov is the U.S. government's official web portal to all federal, state and local government web resources and services.